Location: Makanda
(37.6176°N, 89.2090°W)
Time: 07:13:41
(UTC+00:00)

ISS - Visible Passes

Search period start: 15 November 2019 00:00
Search period end: 25 November 2019 00:00
Orbit: 412 x 421 km, 51.6° (Epoch: 15 November)

Date Brightness Start Highest point End Pass type
(mag) Time Alt. Az. Time Alt. Az. Time Alt. Az.
15 Nov -1.5 11:01:32 14° SSW 11:01:32 14° SSW 11:02:30 10° S visible
20 Nov -2.3 00:24:53 10° SSW 00:26:53 27° S 00:26:53 27° S visible
20 Nov -2.0 23:37:15 10° S 23:39:40 19° SE 23:40:53 16° ESE visible
21 Nov -0.7 01:13:00 10° WSW 01:13:49 16° W 01:13:49 16° W visible
22 Nov -3.7 00:24:24 10° SW 00:27:43 72° NW 00:27:43 72° NW visible
22 Nov -3.6 23:36:02 10° SW 23:39:19 60° SE 23:41:31 19° ENE visible
23 Nov -0.5 01:13:51 10° WNW 01:14:26 13° WNW 01:14:26 13° WNW visible
24 Nov -2.2 00:24:47 10° W 00:27:42 27° NNW 00:28:08 26° NNW visible
24 Nov -2.9 23:35:56 10° WSW 23:39:09 43° NW 23:41:46 14° NE visible
